Abilene, TX

9:18 AM CDT on October 22, 2017 (GMT -0500)
Abilene Regional

Weather History for KABI - August, 2013

Change the Weather History Date:

Wednesday, August 14, 2013

  Actual Average Record
Temperature  
Mean Temperature 81 °F 83 °F  
Max Temperature 87 °F 95 °F 104 °F (1969)
Min Temperature 74 °F 72 °F 63 °F (2004)
Degree Days  
Heating Degree Days 0 0  
Month to date heating degree days 0 0  
Since 1 June heating degree days 0 1  
Since 1 July heating degree days 0 0  
Cooling Degree Days 16 18  
Month to date cooling degree days 307 264  
Year to date cooling degree days 1853 1657  
Since 1 June cooling degree days 1372 1260  
Growing Degree Days 30 (Base 50)    
Moisture  
Dew Point 65 °F    
Average Humidity 63    
Maximum Humidity 79    
Minimum Humidity 46    
Precipitation  
Precipitation 0.00 in 0.08 in 3.37 in (1985)
Month to date precipitation 0.22 1.12  
Year to date precipitation 16.01 15.49  
Sea Level Pressure  
Sea Level Pressure 29.98 in    
Wind  
Wind Speed 8 mph (NE)    
Max Wind Speed 23 mph    
Max Gust Speed 26 mph    
Visibility 10 miles    
Events      
T = Trace of Precipitation, MM = Missing Value Source: NWS Daily Summary

Daily Weather History Graph

Daily Weather History Graph

Search for Another Location

Airport or City:

Trip Planner

Search our weather history database for the weather conditions in past years. The results will help you decide how hot, cold, wet, or windy it might be!

Date:

Astronomy

Aug. 14, 2013 Rise Set
Actual Time 7:02 AM CDT 8:23 PM CDT
Civil Twilight 6:36 AM CDT 8:49 PM CDT
Nautical Twilight 6:05 AM CDT 9:20 PM CDT
Astronomical Twilight 5:32 AM CDT 9:52 PM CDT
Moon 2:33 PM CDT (8/14) 12:29 AM CDT (8/14)
Length of Visible Light 14h 13m
Length of Day
13h 21m
First Quarter, 53% of the Moon is Illuminated
Aug 14
First Quarter
Aug 20
Full
Aug 28
Last Quarter
Sep 5
New
Sep 12
First Quarter

Hourly Weather History & Observations

Time (CDT) Temp. Heat Index Dew Point Humidity Pressure Visibility Wind Dir Wind Speed Gust Speed Precip Events Conditions
12:52 AM 84.0 °F 86.3 °F 66.0 °F 55% 29.93 in 10.0 mi East 13.8 mph - N/A   Partly Cloudy
1:52 AM 82.9 °F 85.4 °F 66.9 °F 58% 29.93 in 10.0 mi ENE 6.9 mph - N/A   Scattered Clouds
2:52 AM 82.0 °F 84.5 °F 66.9 °F 60% 29.93 in 10.0 mi ENE 6.9 mph - N/A   Mostly Cloudy
3:52 AM 80.1 °F 82.1 °F 66.0 °F 62% 29.92 in 10.0 mi East 11.5 mph - N/A   Clear
4:52 AM 78.1 °F - 66.0 °F 66% 29.92 in 10.0 mi East 6.9 mph - N/A   Partly Cloudy
5:52 AM 77.0 °F - 66.9 °F 71% 29.93 in 10.0 mi East 3.5 mph - N/A   Partly Cloudy
6:35 AM 78.8 °F - 66.2 °F 65% 30.07 in 10.0 mi North 15.0 mph - N/A   Overcast
6:52 AM 78.1 °F - 66.9 °F 68% 29.99 in 10.0 mi North 13.8 mph - N/A   Overcast
7:52 AM 73.9 °F - 66.0 °F 76% 30.01 in 10.0 mi NNE 12.7 mph 19.6 mph N/A   Mostly Cloudy
8:52 AM 73.9 °F - 64.9 °F 73% 30.04 in 10.0 mi ENE 15.0 mph 20.7 mph N/A   Overcast
9:52 AM 75.9 °F - 63.0 °F 64% 30.04 in 10.0 mi NE 8.1 mph - N/A   Mostly Cloudy
10:52 AM 75.9 °F - 66.0 °F 71% 30.06 in 10.0 mi NW 13.8 mph - N/A   Mostly Cloudy
11:52 AM 77.0 °F - 64.9 °F 66% 30.05 in 10.0 mi North 10.4 mph - N/A   Scattered Clouds
12:52 PM 82.0 °F 83.4 °F 64.0 °F 54% 30.03 in 10.0 mi Variable 6.9 mph - N/A   Clear
1:52 PM 81.0 °F 82.5 °F 64.0 °F 56% 30.02 in 10.0 mi NNW 4.6 mph - N/A   Clear
2:52 PM 82.0 °F 83.4 °F 64.0 °F 54% 30.00 in 10.0 mi NNW 6.9 mph - N/A   Clear
3:52 PM 84.9 °F 86.6 °F 64.9 °F 51% 29.97 in 10.0 mi North 10.4 mph - N/A   Clear
4:52 PM 86.0 °F 88.2 °F 66.0 °F 51% 29.95 in 10.0 mi NE 6.9 mph - N/A   Partly Cloudy
5:52 PM 87.1 °F 88.9 °F 64.9 °F 48% 29.94 in 10.0 mi North 8.1 mph - N/A   Partly Cloudy
6:52 PM 87.1 °F 88.9 °F 64.9 °F 48% 29.93 in 10.0 mi NNW 5.8 mph - N/A   Scattered Clouds
7:52 PM 84.9 °F 86.6 °F 64.9 °F 51% 29.94 in 10.0 mi North 5.8 mph - N/A   Scattered Clouds
8:52 PM 82.0 °F 84.1 °F 66.0 °F 58% 29.95 in 10.0 mi East 3.5 mph - N/A   Clear
9:52 PM 81.0 °F 82.7 °F 64.9 °F 58% 29.97 in 10.0 mi East 5.8 mph - N/A   Clear
10:52 PM 78.1 °F - 64.9 °F 64% 29.99 in 10.0 mi East 4.6 mph - N/A   Clear
11:52 PM 77.0 °F - 64.9 °F 66% 29.99 in 10.0 mi Calm Calm - N/A   Clear